sat.trackr.live / text

‹ back to catalog

STARLINK-36691

NORAD 67735 · 2026-026Q

PAYLOAD ACTIVE UNKNOWN

§ Identity

Operator
Country
US
Launch date
2026-02-11
Launch site
AFWTR
Launch vehicle
Mass (kg)
RCS (m²)

Purposes: comms

External: N2YO · Heavens-Above · Gunter

§ Orbital elements

Epoch: 2026-09-19T03:22:07.790016Z

Period
93.91 min
Inclination
97.2868°
Eccentricity
0.0000282
Mean motion
15.33446604 rev/d
Perigee alt
465.3 km
Apogee alt
465.7 km
Semi-major
6,843.7 km
B*
3.4900e-4
RAAN
314.0150°
Arg perigee
151.8370°
Mean anomaly
208.2888°
Rev number
3,377

§ Raw data

STARLINK-366911 67735U 26026Q   26262.14036794  .00011209  00000+0  34900-3 0  99972 67735  97.2868 314.0150 0000282 151.8370 208.2888 15.33446604 33773

JSON: /api/v1/satellites/67735 · /tle

For live sub-satellite position, see the globe view (requires WebGL).

§ Visibility from observer

Set your observer location to see the next 7 days of passes ≥ 10°. The values pass through the URL so the page stays shareable.

No JS? Fill the form by hand. The geolocation button needs JavaScript.